GEFSMW_prec_meanprecacc_276.txt.gz
Total_Precipitation_Accumulation
1.95 2.34 2.70 3.16 3.61 4.13 4.89 5.55 6.07 6.12 5.96 5.63 5.28 5.03 4.54 4.20 3.93 3.68 3.48 3.24 2.95 2.85 3.21 2.97 3.31 3.10 3.02 2.89 2.82 2.93 3.01 2.74 2.94 3.23 2.78 2.25 1.91 1.80 1.70 1.69 1.73 1.67 1.77
1.90 2.27 2.78 3.07 3.45 3.98 4.55 4.97 5.01 4.76 4.67 4.73 4.64 4.38 4.38 4.18 4.07 3.86 3.69 3.22 3.03 2.94 2.76 2.97 2.79 2.76 2.87 2.66 2.56 2.77 2.79 2.50 2.79 3.02 3.08 2.50 2.21 1.86 1.38 1.52 1.63 1.72 1.96
1.53 1.87 2.44 2.76 2.96 3.46 3.79 3.83 3.75 3.63 3.75 3.86 3.82 3.87 4.11 4.11 4.09 3.98 3.72 3.38 3.20 3.08 2.93 2.82 2.64 2.59 2.44 2.57 2.60 2.65 2.72 2.68 2.59 2.64 2.95 2.69 2.36 1.96 1.50 1.42 1.63 1.92 2.14
1.28 1.59 1.92 2.16 2.44 2.71 2.83 2.81 2.90 2.98 3.08 3.17 3.22 3.10 3.12 3.34 3.57 3.75 3.82 3.74 3.46 3.20 2.91 2.73 2.55 2.39 2.26 2.54 2.24 2.34 2.65 2.84 2.53 2.47 2.44 2.40 2.51 2.41 2.04 1.61 1.47 1.74 1.92
1.31 1.52 1.64 1.80 1.90 1.96 2.07 2.12 2.41 2.78 2.96 3.07 3.20 3.11 2.79 2.77 2.82 2.95 3.16 3.16 3.12 2.92 2.59 2.52 2.48 2.31 2.18 2.22 2.22 2.51 2.52 2.55 2.48 2.52 2.46 2.53 2.69 2.53 2.38 2.02 1.86 1.98 1.90
1.01 1.24 1.53 1.63 1.59 1.55 1.69 1.90 2.20 2.65 2.91 3.00 2.97 2.94 2.86 2.84 2.74 2.73 2.82 2.69 2.65 2.54 2.32 2.24 2.36 2.24 2.14 2.16 2.17 2.31 2.37 2.53 2.61 2.59 2.54 2.59 2.59 2.61 2.81 2.45 2.20 2.17 1.88
0.78 0.79 0.99 1.25 1.23 1.18 1.36 1.61 1.81 2.17 2.42 2.54 2.53 2.49 2.60 2.71 2.58 2.44 2.40 2.33 2.19 2.08 2.03 2.12 2.27 2.13 2.08 2.17 2.32 2.35 2.34 2.46 2.54 2.47 2.55 2.62 2.57 2.69 2.87 2.79 2.44 2.23 1.97
0.58 0.57 0.65 0.82 1.04 1.04 1.10 1.21 1.47 1.74 1.96 2.03 2.15 2.30 2.45 2.56 2.49 2.65 2.44 2.28 1.99 1.83 1.87 2.09 2.18 2.11 2.03 2.03 2.42 2.41 2.43 2.53 2.50 2.39 2.70 2.74 2.52 2.71 2.91 3.03 3.04 2.71 2.52
0.50 0.50 0.57 0.77 0.81 0.80 0.85 0.95 1.21 1.43 1.59 1.73 1.93 2.05 2.04 2.05 2.22 2.39 2.35 2.18 2.09 1.88 1.95 2.02 2.22 2.32 2.40 2.45 2.59 2.52 2.53 2.72 2.69 2.65 2.84 2.82 2.64 2.65 2.78 3.00 3.21 3.24 3.04
0.52 0.49 0.50 0.59 0.63 0.63 0.74 0.98 1.20 1.24 1.45 1.76 1.98 1.92 1.94 1.90 2.08 2.10 2.08 2.08 2.01 1.98 2.03 2.04 2.13 2.28 2.41 2.47 2.61 2.63 2.67 2.84 2.85 2.91 2.97 2.84 2.58 2.71 2.75 2.89 3.18 3.45 3.50
0.55 0.54 0.54 0.55 0.67 0.58 0.66 0.84 0.98 1.15 1.45 1.75 2.00 2.04 1.95 1.98 2.04 1.91 1.87 1.97 1.99 1.97 2.02 2.04 2.03 2.04 2.19 2.39 2.60 2.55 2.71 2.84 2.89 2.86 2.76 2.65 2.69 2.85 2.78 2.92 3.08 3.31 3.55
0.47 0.44 0.43 0.50 0.48 0.47 0.58 0.88 1.21 1.56 1.74 2.02 2.34 2.42 2.19 1.99 1.86 1.70 1.68 1.82 1.99 2.03 2.02 2.01 2.02 1.97 2.08 2.33 2.49 2.57 2.82 2.97 2.87 2.78 2.73 2.61 2.74 2.84 2.81 2.89 2.89 2.98 3.27
0.49 0.47 0.42 0.51 0.50 0.48 0.51 0.65 0.82 1.18 1.52 1.87 2.23 2.23 1.97 1.75 1.70 1.68 1.69 1.80 1.95 1.96 1.95 2.01 2.09 2.18 2.29 2.46 2.56 2.66 2.84 2.83 2.73 2.73 2.65 2.54 2.63 2.58 2.64 2.66 2.67 2.67 2.77
0.61 0.55 0.52 0.51 0.52 0.52 0.51 0.62 0.72 0.81 1.02 1.47 1.80 1.80 1.63 1.55 1.55 1.58 1.61 1.60 1.66 1.71 1.79 2.01 2.25 2.39 2.52 2.60 2.63 2.64 2.62 2.62 2.53 2.42 2.35 2.37 2.50 2.59 2.56 2.46 2.45 2.53 2.67
0.62 0.58 0.57 0.63 0.65 0.71 0.71 0.72 0.76 0.79 0.97 1.44 1.66 1.62 1.54 1.55 1.47 1.45 1.52 1.58 1.65 1.70 1.93 2.11 2.20 2.25 2.30 2.36 2.49 2.48 2.41 2.40 2.31 2.22 2.05 2.08 2.39 2.53 2.48 2.27 2.38 2.45 2.52
0.61 0.58 0.51 0.61 0.71 0.77 0.80 0.81 0.89 0.94 1.07 1.38 1.60 1.56 1.49 1.46 1.36 1.39 1.47 1.61 1.72 1.90 2.09 2.08 2.06 2.02 1.73 1.84 1.95 2.01 2.06 2.11 2.09 1.98 1.92 1.91 1.98 2.01 2.04 2.01 2.01 2.08 2.17
0.59 0.58 0.61 0.70 0.89 0.84 0.85 0.93 0.89 0.96 1.13 1.43 1.60 1.62 1.54 1.51 1.45 1.41 1.56 1.73 1.91 2.09 2.21 2.19 2.13 1.98 1.87 1.75 1.64 1.65 1.73 1.89 1.92 1.94 2.01 1.74 1.57 1.70 1.72 1.83 1.80 1.72 1.80
0.68 0.74 0.71 0.78 0.87 0.86 0.89 0.96 0.99 1.03 1.18 1.40 1.61 1.67 1.62 1.65 1.73 1.75 1.80 1.99 2.19 2.34 2.36 2.34 2.25 2.14 2.04 1.94 1.75 1.74 1.67 1.79 1.83 1.83 1.85 1.80 1.68 1.63 1.75 1.81 1.74 1.58 1.53
0.79 0.84 0.91 0.95 1.02 1.02 0.98 1.01 1.16 1.20 1.28 1.36 1.56 1.68 1.73 1.81 1.84 1.91 2.15 2.32 2.47 2.49 2.47 2.53 2.43 2.33 2.32 2.15 1.79 1.63 1.57 1.74 1.79 1.80 1.73 1.68 1.62 1.65 1.53 1.48 1.50 1.50 1.49
0.94 0.95 1.01 1.06 1.07 1.10 1.16 1.20 1.31 1.45 1.57 1.66 1.75 1.96 2.15 2.34 2.42 2.48 2.53 2.59 2.69 2.65 2.64 2.58 2.57 2.46 2.39 2.30 1.77 1.49 1.43 1.63 1.69 1.76 1.72 1.59 1.44 1.43 1.30 1.28 1.43 1.42 1.43
0.89 0.97 1.01 1.11 1.18 1.18 1.31 1.51 1.60 1.71 1.87 2.02 2.08 2.29 2.62 2.82 2.82 2.87 2.76 2.65 2.67 2.70 2.71 2.61 2.52 2.44 2.35 2.24 1.79 1.57 1.53 1.69 1.79 1.76 1.70 1.63 1.50 1.30 1.25 1.19 1.26 1.33 1.31
0.81 0.93 1.02 1.10 1.27 1.50 1.68 1.94 2.04 2.03 2.15 2.31 2.46 2.71 2.98 2.86 2.79 2.96 2.84 2.80 2.87 2.84 2.73 2.62 2.53 2.55 2.46 2.21 1.88 1.64 1.65 1.74 1.83 1.89 1.85 1.76 1.54 1.30 1.22 1.14 1.13 1.11 1.03
0.79 0.88 0.98 1.16 1.36 1.64 2.02 2.25 2.31 2.43 2.46 2.53 2.68 2.79 2.87 2.99 3.12 3.19 3.07 2.96 2.93 2.84 2.64 2.51 2.34 2.25 2.33 2.33 1.92 1.63 1.66 1.71 1.72 1.88 1.95 1.69 1.44 1.28 1.13 1.12 1.12 1.00 0.91
0.85 0.90 1.01 1.21 1.50 1.77 2.11 2.25 2.31 2.35 2.37 2.40 2.41 2.50 2.64 2.77 2.89 3.13 3.17 3.04 2.88 2.76 2.67 2.57 2.40 2.28 2.28 2.26 1.92 1.61 1.58 1.64 1.62 1.68 1.77 1.63 1.45 1.30 1.17 1.12 1.08 1.01 1.05
0.90 1.00 1.12 1.24 1.39 1.64 1.88 1.97 2.11 2.18 2.33 2.37 2.29 2.24 2.28 2.42 2.56 2.67 2.75 2.70 2.66 2.47 2.35 2.21 2.12 2.07 2.09 2.09 1.85 1.63 1.57 1.67 1.73 1.69 1.70 1.68 1.54 1.41 1.32 1.28 1.32 1.35 1.33
0.88 1.00 1.13 1.29 1.43 1.60 1.78 1.87 2.01 2.10 2.20 2.21 2.12 2.11 2.10 2.18 2.24 2.25 2.19 2.03 1.93 1.76 1.59 1.51 1.47 1.47 1.52 1.65 1.51 1.39 1.45 1.60 1.68 1.58 1.55 1.65 1.64 1.56 1.48 1.43 1.44 1.44 1.40

GEFSMW_prec_meanprecacc_282.txt.gz
Total_Precipitation_Accumulation
1.97 2.36 2.73 3.19 3.65 4.16 4.90 5.58 6.12 6.17 5.99 5.66 5.32 5.07 4.61 4.28 4.01 3.74 3.54 3.30 3.01 2.90 3.26 3.02 3.37 3.19 3.13 2.97 2.90 3.01 3.08 2.78 2.99 3.30 2.85 2.33 2.03 1.90 1.79 1.78 1.84 1.78 1.88
1.91 2.28 2.80 3.12 3.49 4.01 4.56 4.98 5.04 4.79 4.70 4.75 4.67 4.42 4.42 4.24 4.14 3.93 3.77 3.29 3.09 2.99 2.81 3.01 2.83 2.81 2.92 2.70 2.60 2.82 2.84 2.55 2.84 3.07 3.12 2.55 2.33 1.96 1.46 1.61 1.75 1.85 2.07
1.53 1.88 2.46 2.80 3.00 3.48 3.81 3.84 3.76 3.66 3.77 3.89 3.85 3.90 4.14 4.17 4.18 4.09 3.83 3.45 3.25 3.12 2.96 2.86 2.68 2.64 2.49 2.61 2.63 2.69 2.77 2.74 2.64 2.69 2.99 2.71 2.38 1.99 1.55 1.48 1.71 2.03 2.30
1.29 1.59 1.93 2.18 2.47 2.75 2.86 2.83 2.91 3.00 3.11 3.20 3.25 3.12 3.16 3.41 3.66 3.85 3.92 3.80 3.52 3.26 2.97 2.79 2.59 2.44 2.31 2.57 2.27 2.38 2.69 2.89 2.57 2.50 2.48 2.43 2.53 2.43 2.06 1.65 1.53 1.81 2.01
1.31 1.52 1.65 1.82 1.93 2.01 2.12 2.15 2.44 2.83 3.01 3.11 3.24 3.14 2.83 2.84 2.91 3.05 3.23 3.22 3.20 3.01 2.69 2.59 2.53 2.35 2.21 2.25 2.26 2.54 2.56 2.58 2.52 2.56 2.49 2.57 2.73 2.55 2.40 2.06 1.93 2.06 1.96
1.02 1.24 1.54 1.64 1.62 1.60 1.74 1.94 2.24 2.72 3.00 3.07 3.03 2.99 2.91 2.90 2.82 2.81 2.89 2.77 2.73 2.63 2.39 2.30 2.40 2.27 2.17 2.20 2.21 2.35 2.41 2.57 2.65 2.64 2.57 2.63 2.63 2.66 2.83 2.49 2.25 2.23 1.96
0.79 0.80 1.00 1.26 1.25 1.21 1.40 1.66 1.85 2.23 2.49 2.61 2.60 2.55 2.66 2.76 2.62 2.48 2.44 2.38 2.23 2.12 2.08 2.16 2.30 2.16 2.11 2.20 2.36 2.38 2.38 2.51 2.59 2.53 2.59 2.67 2.62 2.75 2.90 2.82 2.47 2.26 2.01
0.60 0.59 0.65 0.82 1.05 1.05 1.12 1.24 1.50 1.77 1.99 2.06 2.20 2.34 2.50 2.59 2.52 2.68 2.47 2.31 2.01 1.85 1.90 2.12 2.21 2.13 2.05 2.05 2.45 2.45 2.47 2.58 2.57 2.45 2.75 2.78 2.56 2.77 2.94 3.05 3.07 2.74 2.55
0.52 0.52 0.58 0.78 0.81 0.81 0.85 0.96 1.22 1.44 1.60 1.75 1.95 2.07 2.06 2.08 2.25 2.42 2.38 2.20 2.12 1.90 1.97 2.05 2.24 2.33 2.41 2.47 2.61 2.56 2.56 2.75 2.73 2.69 2.88 2.85 2.68 2.69 2.83 3.02 3.23 3.27 3.06
0.57 0.54 0.55 0.61 0.64 0.64 0.74 0.99 1.20 1.24 1.45 1.77 1.99 1.93 1.96 1.93 2.10 2.12 2.10 2.11 2.04 2.01 2.04 2.06 2.15 2.29 2.41 2.48 2.63 2.65 2.69 2.86 2.89 2.94 3.01 2.88 2.63 2.76 2.81 2.93 3.21 3.47 3.52
0.63 0.59 0.58 0.57 0.68 0.60 0.67 0.85 0.99 1.15 1.45 1.76 2.01 2.05 1.97 2.00 2.07 1.93 1.89 2.00 2.01 1.99 2.05 2.06 2.04 2.05 2.20 2.40 2.62 2.59 2.74 2.87 2.91 2.88 2.80 2.71 2.74 2.89 2.83 2.96 3.12 3.35 3.58
0.51 0.48 0.46 0.52 0.50 0.49 0.59 0.89 1.21 1.56 1.75 2.03 2.35 2.42 2.19 2.01 1.87 1.72 1.70 1.84 2.02 2.06 2.04 2.03 2.04 1.99 2.09 2.33 2.51 2.61 2.85 2.99 2.89 2.79 2.76 2.66 2.79 2.88 2.85 2.93 2.92 3.00 3.29
0.52 0.50 0.45 0.53 0.52 0.50 0.52 0.66 0.82 1.19 1.52 1.88 2.24 2.24 1.99 1.76 1.71 1.70 1.71 1.81 1.97 1.99 1.97 2.02 2.10 2.20 2.31 2.47 2.58 2.69 2.87 2.85 2.74 2.74 2.66 2.56 2.67 2.62 2.68 2.69 2.69 2.69 2.79
0.64 0.58 0.55 0.54 0.54 0.54 0.52 0.63 0.73 0.81 1.03 1.48 1.81 1.82 1.66 1.58 1.58 1.61 1.63 1.62 1.68 1.73 1.80 2.02 2.25 2.40 2.53 2.62 2.65 2.66 2.63 2.63 2.53 2.43 2.36 2.39 2.53 2.63 2.62 2.51 2.49 2.56 2.69
0.64 0.59 0.59 0.67 0.68 0.73 0.73 0.73 0.77 0.79 0.98 1.45 1.67 1.64 1.57 1.58 1.51 1.47 1.56 1.63 1.69 1.72 1.95 2.12 2.21 2.26 2.31 2.37 2.51 2.49 2.42 2.41 2.32 2.22 2.06 2.10 2.42 2.58 2.53 2.32 2.41 2.49 2.56
0.63 0.60 0.53 0.63 0.73 0.80 0.81 0.82 0.89 0.95 1.07 1.39 1.62 1.58 1.51 1.48 1.39 1.42 1.52 1.66 1.75 1.93 2.11 2.10 2.08 2.04 1.75 1.86 1.97 2.02 2.07 2.11 2.10 1.98 1.93 1.93 2.00 2.04 2.07 2.05 2.05 2.11 2.20
0.61 0.60 0.64 0.73 0.93 0.87 0.87 0.94 0.90 0.97 1.14 1.44 1.63 1.64 1.55 1.53 1.47 1.42 1.59 1.77 1.95 2.12 2.23 2.20 2.14 1.99 1.88 1.77 1.66 1.67 1.74 1.90 1.92 1.95 2.02 1.75 1.58 1.71 1.73 1.86 1.84 1.75 1.83
0.69 0.77 0.75 0.80 0.89 0.88 0.92 0.98 1.00 1.04 1.19 1.41 1.62 1.69 1.63 1.66 1.74 1.75 1.82 2.01 2.22 2.36 2.38 2.35 2.26 2.15 2.05 1.95 1.76 1.75 1.68 1.79 1.83 1.83 1.86 1.81 1.69 1.64 1.76 1.84 1.77 1.61 1.56
0.81 0.86 0.95 0.98 1.05 1.05 1.00 1.04 1.19 1.22 1.30 1.37 1.57 1.69 1.74 1.82 1.85 1.92 2.15 2.33 2.49 2.51 2.49 2.55 2.46 2.35 2.32 2.15 1.80 1.63 1.57 1.74 1.79 1.80 1.74 1.69 1.62 1.67 1.55 1.50 1.52 1.52 1.51
0.97 0.96 1.04 1.09 1.10 1.14 1.21 1.23 1.35 1.50 1.62 1.70 1.78 1.98 2.18 2.35 2.43 2.50 2.54 2.60 2.71 2.66 2.66 2.60 2.59 2.47 2.41 2.31 1.78 1.50 1.44 1.64 1.70 1.77 1.73 1.60 1.46 1.44 1.31 1.28 1.44 1.43 1.44
0.91 1.00 1.03 1.13 1.20 1.21 1.35 1.58 1.70 1.79 1.94 2.09 2.13 2.32 2.65 2.85 2.85 2.90 2.79 2.68 2.69 2.72 2.73 2.63 2.55 2.47 2.38 2.27 1.82 1.60 1.55 1.70 1.80 1.77 1.71 1.65 1.52 1.31 1.26 1.20 1.26 1.34 1.33
0.83 0.95 1.03 1.12 1.30 1.54 1.73 1.98 2.12 2.14 2.23 2.36 2.52 2.77 3.03 2.90 2.82 2.98 2.87 2.84 2.91 2.89 2.78 2.68 2.59 2.59 2.50 2.26 1.91 1.67 1.67 1.76 1.85 1.91 1.87 1.78 1.56 1.31 1.22 1.14 1.14 1.13 1.04
0.81 0.91 1.00 1.18 1.38 1.68 2.05 2.28 2.33 2.47 2.50 2.57 2.72 2.84 2.93 3.06 3.17 3.23 3.10 3.01 2.97 2.90 2.70 2.59 2.42 2.33 2.39 2.38 1.96 1.66 1.68 1.73 1.73 1.90 1.96 1.70 1.45 1.28 1.13 1.13 1.13 1.02 0.92
0.88 0.93 1.03 1.22 1.51 1.80 2.14 2.28 2.34 2.37 2.39 2.43 2.45 2.55 2.70 2.83 2.95 3.19 3.22 3.10 2.93 2.82 2.72 2.63 2.46 2.34 2.33 2.30 1.96 1.64 1.60 1.67 1.64 1.70 1.78 1.64 1.46 1.30 1.17 1.12 1.09 1.02 1.06
0.94 1.04 1.14 1.25 1.41 1.66 1.91 2.01 2.16 2.24 2.39 2.42 2.36 2.32 2.34 2.49 2.63 2.75 2.83 2.77 2.72 2.54 2.41 2.26 2.17 2.12 2.13 2.13 1.90 1.68 1.61 1.71 1.77 1.73 1.73 1.70 1.55 1.42 1.32 1.29 1.32 1.36 1.35
0.91 1.04 1.17 1.31 1.44 1.61 1.80 1.90 2.06 2.18 2.29 2.30 2.18 2.17 2.17 2.24 2.30 2.33 2.28 2.13 2.02 1.85 1.67 1.58 1.52 1.51 1.56 1.69 1.55 1.42 1.47 1.63 1.73 1.62 1.58 1.67 1.65 1.57 1.49 1.45 1.46 1.46 1.41

GEFSMW_prec_meanprecacc_288.txt.gz
Total_Precipitation_Accumulation
1.98 2.37 2.74 3.21 3.67 4.17 4.92 5.60 6.17 6.25 6.09 5.72 5.34 5.10 4.64 4.32 4.05 3.79 3.59 3.33 3.04 2.94 3.30 3.06 3.41 3.21 3.16 3.00 2.94 3.05 3.13 2.84 3.04 3.37 2.92 2.38 2.08 1.95 1.83 1.82 1.88 1.81 1.91
1.92 2.29 2.82 3.13 3.51 4.03 4.58 5.00 5.06 4.83 4.75 4.80 4.69 4.44 4.45 4.28 4.18 3.99 3.81 3.32 3.11 3.01 2.84 3.04 2.86 2.83 2.95 2.75 2.66 2.86 2.88 2.59 2.87 3.12 3.19 2.61 2.37 2.00 1.50 1.64 1.78 1.88 2.10
1.54 1.89 2.47 2.80 3.01 3.51 3.83 3.86 3.79 3.69 3.82 3.93 3.88 3.93 4.18 4.22 4.24 4.13 3.86 3.49 3.28 3.14 2.99 2.88 2.71 2.67 2.51 2.64 2.67 2.73 2.82 2.80 2.70 2.74 3.04 2.75 2.41 2.02 1.59 1.52 1.76 2.08 2.34
1.29 1.60 1.94 2.19 2.48 2.76 2.88 2.85 2.93 3.02 3.15 3.27 3.29 3.16 3.20 3.46 3.71 3.89 3.94 3.83 3.54 3.28 2.99 2.81 2.61 2.46 2.33 2.61 2.31 2.42 2.73 2.93 2.62 2.54 2.51 2.46 2.56 2.45 2.09 1.68 1.56 1.84 2.05
1.32 1.53 1.66 1.83 1.95 2.02 2.13 2.16 2.45 2.84 3.04 3.18 3.30 3.18 2.86 2.89 2.97 3.10 3.26 3.24 3.23 3.04 2.71 2.61 2.55 2.38 2.25 2.29 2.29 2.57 2.59 2.61 2.54 2.59 2.52 2.59 2.75 2.57 2.42 2.08 1.95 2.08 1.98
1.03 1.26 1.55 1.65 1.64 1.61 1.75 1.95 2.26 2.74 3.03 3.13 3.09 3.04 2.95 2.96 2.90 2.87 2.93 2.80 2.77 2.66 2.42 2.32 2.43 2.30 2.21 2.24 2.24 2.37 2.44 2.60 2.67 2.65 2.60 2.65 2.65 2.68 2.85 2.51 2.27 2.25 1.98
0.81 0.81 1.01 1.28 1.26 1.23 1.41 1.67 1.86 2.26 2.55 2.69 2.67 2.60 2.72 2.83 2.70 2.54 2.48 2.40 2.26 2.15 2.10 2.20 2.34 2.19 2.16 2.25 2.39 2.42 2.41 2.55 2.62 2.55 2.62 2.70 2.64 2.77 2.92 2.84 2.49 2.27 2.03
0.61 0.59 0.66 0.84 1.06 1.07 1.15 1.28 1.52 1.80 2.06 2.16 2.29 2.42 2.58 2.68 2.60 2.74 2.50 2.34 2.04 1.87 1.93 2.16 2.24 2.17 2.09 2.09 2.49 2.48 2.50 2.61 2.59 2.48 2.78 2.80 2.59 2.79 2.97 3.07 3.08 2.75 2.56
0.52 0.52 0.59 0.79 0.85 0.87 0.93 1.05 1.27 1.47 1.67 1.85 2.06 2.16 2.15 2.15 2.32 2.47 2.43 2.25 2.17 1.93 1.99 2.07 2.27 2.36 2.43 2.49 2.63 2.57 2.58 2.78 2.75 2.71 2.90 2.87 2.70 2.71 2.86 3.05 3.25 3.29 3.08
0.58 0.54 0.55 0.64 0.69 0.73 0.84 1.05 1.23 1.26 1.49 1.84 2.07 2.01 2.04 1.99 2.15 2.16 2.14 2.15 2.08 2.03 2.06 2.08 2.17 2.32 2.43 2.49 2.65 2.66 2.71 2.89 2.91 2.97 3.02 2.89 2.64 2.79 2.84 2.96 3.24 3.50 3.54
0.63 0.60 0.59 0.59 0.70 0.63 0.71 0.88 1.01 1.17 1.48 1.81 2.08 2.13 2.04 2.05 2.10 1.96 1.93 2.03 2.04 2.01 2.07 2.08 2.07 2.08 2.23 2.43 2.64 2.60 2.76 2.88 2.93 2.89 2.81 2.72 2.75 2.91 2.85 2.99 3.15 3.38 3.61
0.51 0.48 0.47 0.53 0.51 0.50 0.60 0.91 1.23 1.58 1.77 2.06 2.40 2.48 2.24 2.04 1.90 1.75 1.74 1.88 2.04 2.09 2.08 2.07 2.07 2.01 2.12 2.36 2.52 2.63 2.87 3.00 2.90 2.80 2.77 2.67 2.80 2.90 2.88 2.96 2.95 3.02 3.31
0.53 0.51 0.46 0.54 0.53 0.51 0.53 0.67 0.84 1.20 1.55 1.92 2.27 2.28 2.02 1.79 1.74 1.73 1.75 1.85 2.02 2.05 2.03 2.06 2.13 2.22 2.33 2.48 2.59 2.70 2.89 2.87 2.75 2.75 2.67 2.57 2.67 2.63 2.69 2.72 2.72 2.71 2.80
0.65 0.59 0.56 0.55 0.55 0.55 0.53 0.64 0.75 0.84 1.06 1.52 1.87 1.84 1.67 1.61 1.62 1.64 1.67 1.68 1.76 1.80 1.85 2.06 2.27 2.41 2.54 2.63 2.66 2.67 2.66 2.65 2.55 2.44 2.37 2.39 2.53 2.64 2.63 2.54 2.52 2.58 2.71
0.65 0.61 0.60 0.67 0.69 0.73 0.74 0.75 0.79 0.82 1.01 1.48 1.72 1.67 1.59 1.61 1.54 1.51 1.62 1.69 1.74 1.76 1.98 2.14 2.23 2.28 2.33 2.39 2.52 2.51 2.43 2.42 2.32 2.23 2.07 2.11 2.43 2.59 2.55 2.35 2.45 2.52 2.58
0.64 0.62 0.54 0.64 0.74 0.81 0.83 0.84 0.91 0.97 1.10 1.42 1.65 1.62 1.54 1.51 1.41 1.47 1.58 1.70 1.80 1.97 2.14 2.12 2.10 2.06 1.77 1.88 1.99 2.03 2.08 2.12 2.10 1.99 1.93 1.93 2.01 2.05 2.09 2.08 2.09 2.16 2.23
0.62 0.62 0.66 0.74 0.93 0.87 0.88 0.96 0.91 0.98 1.15 1.46 1.67 1.68 1.60 1.55 1.49 1.45 1.63 1.79 1.98 2.17 2.26 2.23 2.17 2.01 1.91 1.80 1.69 1.68 1.75 1.91 1.93 1.95 2.02 1.75 1.58 1.71 1.74 1.87 1.86 1.79 1.88
0.70 0.77 0.75 0.81 0.89 0.88 0.93 0.99 1.01 1.05 1.20 1.43 1.66 1.73 1.67 1.69 1.77 1.78 1.84 2.02 2.24 2.39 2.40 2.38 2.28 2.18 2.08 1.98 1.80 1.77 1.69 1.80 1.83 1.84 1.86 1.82 1.69 1.65 1.76 1.84 1.77 1.62 1.59
0.81 0.86 0.95 0.99 1.06 1.06 1.01 1.04 1.19 1.23 1.31 1.39 1.61 1.74 1.79 1.87 1.89 1.95 2.17 2.35 2.50 2.53 2.51 2.56 2.48 2.37 2.35 2.18 1.84 1.66 1.58 1.75 1.79 1.80 1.75 1.71 1.63 1.68 1.56 1.51 1.53 1.52 1.52
0.97 0.97 1.04 1.10 1.11 1.15 1.21 1.23 1.35 1.51 1.64 1.72 1.81 2.03 2.24 2.41 2.47 2.53 2.58 2.63 2.73 2.68 2.68 2.61 2.60 2.49 2.43 2.34 1.82 1.54 1.47 1.65 1.72 1.79 1.74 1.62 1.47 1.46 1.32 1.30 1.45 1.45 1.45
0.92 1.01 1.04 1.14 1.21 1.22 1.36 1.59 1.71 1.80 1.96 2.12 2.18 2.38 2.71 2.90 2.89 2.94 2.83 2.72 2.72 2.75 2.75 2.65 2.56 2.48 2.39 2.29 1.85 1.65 1.59 1.74 1.83 1.79 1.73 1.66 1.53 1.33 1.28 1.22 1.27 1.35 1.34
0.86 0.97 1.05 1.13 1.31 1.56 1.75 2.00 2.14 2.16 2.24 2.39 2.58 2.83 3.08 2.96 2.87 3.02 2.92 2.90 2.96 2.95 2.84 2.74 2.63 2.62 2.53 2.28 1.94 1.70 1.70 1.79 1.87 1.92 1.89 1.79 1.57 1.31 1.23 1.15 1.14 1.13 1.05
0.85 0.94 1.04 1.21 1.41 1.70 2.07 2.30 2.35 2.48 2.52 2.59 2.75 2.88 2.97 3.09 3.22 3.27 3.14 3.05 3.02 2.96 2.77 2.66 2.49 2.39 2.45 2.42 1.99 1.69 1.71 1.76 1.76 1.91 1.97 1.71 1.46 1.29 1.14 1.14 1.14 1.02 0.92
0.93 0.98 1.09 1.28 1.56 1.85 2.18 2.32 2.37 2.39 2.41 2.46 2.48 2.59 2.73 2.86 2.98 3.23 3.26 3.14 2.97 2.86 2.76 2.68 2.50 2.38 2.37 2.33 1.99 1.67 1.63 1.70 1.66 1.72 1.80 1.65 1.47 1.32 1.18 1.13 1.09 1.03 1.07
1.02 1.12 1.22 1.32 1.46 1.71 1.97 2.07 2.22 2.29 2.44 2.48 2.43 2.38 2.41 2.55 2.69 2.80 2.89 2.83 2.77 2.58 2.45 2.30 2.21 2.15 2.15 2.16 1.95 1.71 1.64 1.73 1.80 1.77 1.76 1.71 1.56 1.43 1.32 1.29 1.33 1.37 1.36
0.99 1.11 1.24 1.40 1.54 1.70 1.89 1.99 2.15 2.27 2.38 2.39 2.27 2.26 2.25 2.32 2.37 2.38 2.33 2.20 2.10 1.93 1.72 1.61 1.55 1.54 1.59 1.73 1.59 1.46 1.51 1.67 1.78 1.66 1.60 1.69 1.67 1.58 1.50 1.46 1.47 1.47 1.43

GEFSMW_prec_meanprecacc_294.txt.gz
Total_Precipitation_Accumulation
1.98 2.38 2.75 3.22 3.67 4.18 4.93 5.64 6.22 6.30 6.15 5.76 5.38 5.14 4.68 4.37 4.11 3.85 3.66 3.42 3.14 3.01 3.37 3.12 3.47 3.27 3.21 3.05 3.01 3.13 3.21 2.91 3.09 3.43 2.97 2.44 2.13 2.00 1.87 1.85 1.90 1.83 1.93
1.92 2.29 2.84 3.15 3.52 4.04 4.59 5.03 5.12 4.89 4.81 4.84 4.73 4.48 4.48 4.31 4.23 4.05 3.89 3.40 3.19 3.07 2.88 3.10 2.93 2.90 3.01 2.81 2.73 2.93 2.95 2.66 2.93 3.19 3.26 2.71 2.46 2.05 1.53 1.68 1.81 1.92 2.13
1.54 1.90 2.49 2.82 3.02 3.51 3.84 3.87 3.82 3.76 3.91 3.97 3.91 3.95 4.21 4.27 4.30 4.20 3.97 3.57 3.35 3.20 3.04 2.94 2.77 2.73 2.56 2.71 2.75 2.79 2.90 2.88 2.76 2.80 3.11 2.82 2.50 2.08 1.62 1.55 1.79 2.12 2.38
1.30 1.61 1.95 2.21 2.49 2.77 2.88 2.86 2.95 3.08 3.22 3.32 3.34 3.19 3.23 3.51 3.75 3.95 4.03 3.90 3.60 3.34 3.06 2.88 2.68 2.52 2.38 2.66 2.37 2.48 2.80 3.00 2.68 2.61 2.56 2.50 2.62 2.51 2.14 1.72 1.58 1.86 2.08
1.33 1.54 1.66 1.85 1.96 2.03 2.14 2.17 2.46 2.88 3.08 3.22 3.35 3.24 2.91 2.94 3.01 3.15 3.32 3.31 3.28 3.11 2.77 2.68 2.62 2.44 2.29 2.34 2.34 2.64 2.67 2.67 2.58 2.63 2.55 2.63 2.80 2.62 2.47 2.13 1.98 2.11 2.02
1.04 1.26 1.56 1.67 1.65 1.62 1.76 1.95 2.26 2.77 3.07 3.19 3.14 3.12 3.04 3.03 2.95 2.92 2.99 2.86 2.84 2.77 2.52 2.39 2.48 2.36 2.27 2.30 2.30 2.45 2.52 2.67 2.71 2.69 2.64 2.70 2.71 2.74 2.91 2.56 2.31 2.29 2.01
0.81 0.82 1.02 1.29 1.27 1.24 1.41 1.67 1.87 2.28 2.59 2.77 2.72 2.67 2.80 2.90 2.75 2.59 2.53 2.46 2.33 2.26 2.20 2.25 2.40 2.25 2.23 2.32 2.46 2.51 2.49 2.61 2.67 2.60 2.67 2.74 2.68 2.81 2.96 2.89 2.52 2.30 2.05
0.61 0.60 0.66 0.84 1.06 1.09 1.17 1.29 1.53 1.82 2.08 2.25 2.37 2.48 2.65 2.75 2.66 2.80 2.54 2.39 2.10 1.94 1.99 2.20 2.28 2.22 2.14 2.14 2.56 2.56 2.56 2.67 2.64 2.52 2.82 2.85 2.62 2.82 2.99 3.10 3.12 2.79 2.59
0.53 0.53 0.59 0.79 0.86 0.88 0.95 1.07 1.28 1.48 1.69 1.94 2.15 2.23 2.23 2.23 2.38 2.53 2.47 2.31 2.22 1.98 2.03 2.10 2.31 2.41 2.47 2.53 2.68 2.63 2.62 2.82 2.79 2.75 2.94 2.91 2.73 2.74 2.88 3.08 3.29 3.34 3.13
0.58 0.55 0.56 0.64 0.70 0.75 0.86 1.07 1.26 1.27 1.50 1.88 2.15 2.10 2.14 2.07 2.23 2.23 2.19 2.21 2.13 2.08 2.14 2.15 2.22 2.36 2.46 2.53 2.69 2.70 2.74 2.91 2.94 2.99 3.06 2.93 2.68 2.82 2.87 2.99 3.28 3.54 3.60
0.63 0.60 0.60 0.60 0.71 0.64 0.72 0.90 1.04 1.19 1.48 1.81 2.11 2.21 2.13 2.12 2.18 2.03 1.98 2.08 2.08 2.06 2.15 2.16 2.14 2.13 2.26 2.45 2.67 2.63 2.79 2.91 2.96 2.92 2.83 2.75 2.78 2.94 2.88 3.03 3.19 3.42 3.66
0.51 0.48 0.47 0.53 0.51 0.50 0.61 0.93 1.26 1.60 1.78 2.07 2.42 2.54 2.31 2.10 1.97 1.79 1.77 1.91 2.08 2.13 2.13 2.13 2.13 2.05 2.15 2.39 2.55 2.66 2.90 3.03 2.93 2.83 2.80 2.69 2.81 2.92 2.90 2.99 2.98 3.07 3.38
0.53 0.51 0.46 0.54 0.53 0.51 0.53 0.68 0.86 1.22 1.57 1.93 2.30 2.34 2.08 1.84 1.79 1.77 1.78 1.89 2.06 2.08 2.07 2.12 2.18 2.27 2.37 2.52 2.62 2.74 2.91 2.89 2.78 2.79 2.71 2.59 2.69 2.64 2.71 2.75 2.75 2.75 2.88
0.66 0.59 0.56 0.55 0.55 0.55 0.53 0.64 0.76 0.84 1.07 1.54 1.88 1.86 1.70 1.64 1.65 1.67 1.70 1.70 1.78 1.83 1.88 2.10 2.33 2.46 2.59 2.68 2.71 2.71 2.68 2.67 2.56 2.46 2.40 2.42 2.55 2.66 2.65 2.56 2.54 2.62 2.76
0.66 0.61 0.60 0.68 0.70 0.74 0.74 0.75 0.79 0.83 1.02 1.50 1.74 1.69 1.61 1.63 1.57 1.53 1.64 1.71 1.76 1.79 2.01 2.17 2.27 2.32 2.36 2.43 2.58 2.56 2.46 2.44 2.34 2.24 2.08 2.12 2.45 2.61 2.58 2.37 2.47 2.55 2.61
0.65 0.62 0.55 0.64 0.75 0.82 0.83 0.84 0.92 0.98 1.11 1.43 1.67 1.64 1.56 1.53 1.43 1.48 1.60 1.72 1.81 1.99 2.17 2.15 2.14 2.10 1.79 1.90 2.03 2.07 2.11 2.16 2.13 2.01 1.95 1.94 2.02 2.06 2.10 2.10 2.12 2.19 2.26
0.62 0.62 0.66 0.74 0.94 0.89 0.90 0.96 0.91 0.98 1.16 1.47 1.68 1.70 1.62 1.58 1.52 1.48 1.65 1.81 2.01 2.20 2.30 2.27 2.20 2.05 1.93 1.82 1.72 1.71 1.78 1.93 1.95 1.98 2.04 1.76 1.58 1.72 1.75 1.89 1.88 1.83 1.92
0.70 0.78 0.76 0.81 0.91 0.90 0.94 1.00 1.02 1.06 1.20 1.44 1.67 1.75 1.70 1.72 1.80 1.82 1.88 2.05 2.28 2.44 2.45 2.42 2.32 2.20 2.10 2.00 1.82 1.79 1.71 1.81 1.85 1.86 1.88 1.83 1.70 1.66 1.78 1.86 1.80 1.65 1.62
0.82 0.87 0.96 1.00 1.08 1.07 1.02 1.05 1.20 1.24 1.32 1.40 1.63 1.77 1.82 1.90 1.92 1.99 2.24 2.41 2.56 2.59 2.55 2.61 2.51 2.39 2.37 2.19 1.85 1.68 1.60 1.75 1.80 1.81 1.76 1.72 1.64 1.70 1.58 1.53 1.54 1.55 1.54
0.98 0.98 1.05 1.10 1.12 1.16 1.22 1.25 1.36 1.53 1.66 1.74 1.83 2.06 2.27 2.44 2.51 2.58 2.63 2.69 2.77 2.72 2.72 2.64 2.62 2.50 2.44 2.35 1.82 1.56 1.48 1.67 1.73 1.80 1.75 1.63 1.48 1.47 1.36 1.32 1.46 1.47 1.47
0.93 1.02 1.05 1.14 1.22 1.23 1.37 1.62 1.73 1.83 2.00 2.16 2.22 2.43 2.76 2.95 2.93 2.99 2.88 2.77 2.77 2.78 2.78 2.68 2.58 2.50 2.40 2.31 1.87 1.66 1.61 1.75 1.84 1.81 1.73 1.66 1.54 1.34 1.30 1.25 1.29 1.36 1.36
0.87 0.99 1.07 1.15 1.33 1.58 1.77 2.04 2.18 2.21 2.30 2.45 2.64 2.89 3.14 3.00 2.92 3.07 2.96 2.94 3.00 2.98 2.87 2.77 2.65 2.64 2.55 2.31 1.97 1.73 1.72 1.81 1.88 1.93 1.89 1.80 1.58 1.33 1.26 1.18 1.15 1.14 1.07
0.86 0.96 1.05 1.22 1.43 1.73 2.11 2.36 2.42 2.54 2.57 2.64 2.80 2.92 3.00 3.13 3.26 3.31 3.17 3.07 3.05 2.99 2.80 2.69 2.52 2.41 2.47 2.45 2.03 1.72 1.74 1.79 1.78 1.93 1.99 1.73 1.48 1.32 1.16 1.15 1.15 1.04 0.94
0.95 0.99 1.10 1.30 1.59 1.89 2.24 2.39 2.43 2.45 2.46 2.50 2.52 2.62 2.77 2.90 3.02 3.26 3.29 3.16 2.99 2.88 2.79 2.71 2.55 2.43 2.42 2.38 2.03 1.71 1.67 1.73 1.70 1.75 1.83 1.69 1.52 1.36 1.21 1.14 1.10 1.03 1.08
1.03 1.13 1.24 1.34 1.49 1.75 2.02 2.13 2.28 2.36 2.50 2.54 2.47 2.42 2.44 2.58 2.72 2.83 2.92 2.86 2.81 2.63 2.49 2.35 2.27 2.20 2.19 2.20 1.99 1.76 1.69 1.78 1.85 1.82 1.81 1.77 1.62 1.47 1.35 1.30 1.33 1.38 1.38
1.00 1.13 1.27 1.43 1.58 1.75 1.93 2.02 2.19 2.32 2.43 2.44 2.33 2.31 2.29 2.36 2.41 2.41 2.37 2.24 2.15 1.99 1.80 1.70 1.63 1.60 1.65 1.79 1.64 1.51 1.56 1.72 1.83 1.72 1.66 1.75 1.72 1.62 1.53 1.48 1.48 1.48 1.44

GEFSMW_prec_meanprecacc_300.txt.gz
Total_Precipitation_Accumulation
1.98 2.38 2.76 3.23 3.68 4.19 4.95 5.65 6.25 6.33 6.20 5.83 5.45 5.21 4.76 4.45 4.17 3.91 3.71 3.47 3.18 3.06 3.44 3.19 3.54 3.35 3.31 3.17 3.12 3.26 3.33 2.99 3.16 3.52 3.07 2.52 2.20 2.06 1.91 1.92 1.97 1.91 2.01
1.92 2.30 2.84 3.16 3.52 4.05 4.62 5.06 5.15 4.92 4.85 4.89 4.79 4.54 4.55 4.37 4.30 4.12 3.97 3.44 3.23 3.11 2.93 3.17 2.99 2.95 3.08 2.89 2.82 3.02 3.04 2.73 3.01 3.30 3.39 2.84 2.58 2.14 1.60 1.75 1.87 1.98 2.21
1.54 1.90 2.49 2.83 3.03 3.53 3.87 3.91 3.85 3.80 3.94 4.02 3.96 4.00 4.26 4.33 4.39 4.32 4.08 3.65 3.42 3.25 3.10 3.01 2.83 2.78 2.62 2.79 2.82 2.86 2.98 2.96 2.84 2.89 3.22 2.95 2.64 2.21 1.72 1.64 1.85 2.17 2.44
1.30 1.61 1.95 2.21 2.50 2.77 2.89 2.88 2.98 3.12 3.26 3.36 3.38 3.25 3.28 3.56 3.82 4.04 4.12 3.98 3.70 3.44 3.13 2.94 2.72 2.57 2.43 2.74 2.43 2.54 2.87 3.08 2.76 2.67 2.64 2.60 2.74 2.63 2.26 1.81 1.64 1.91 2.13
1.33 1.54 1.67 1.86 1.97 2.03 2.14 2.18 2.48 2.91 3.11 3.24 3.39 3.29 2.96 2.97 3.05 3.21 3.40 3.39 3.38 3.19 2.84 2.74 2.67 2.49 2.35 2.41 2.40 2.71 2.73 2.72 2.65 2.71 2.63 2.73 2.92 2.72 2.57 2.23 2.07 2.17 2.06
1.04 1.27 1.56 1.68 1.66 1.63 1.76 1.96 2.28 2.79 3.09 3.23 3.18 3.16 3.08 3.07 2.99 2.98 3.07 2.96 2.92 2.85 2.59 2.46 2.55 2.41 2.33 2.39 2.40 2.52 2.57 2.72 2.78 2.77 2.72 2.78 2.79 2.83 2.99 2.64 2.39 2.36 2.06
0.81 0.82 1.03 1.30 1.28 1.25 1.43 1.69 1.89 2.30 2.61 2.82 2.77 2.71 2.84 2.93 2.78 2.63 2.59 2.55 2.40 2.33 2.29 2.33 2.45 2.31 2.28 2.37 2.53 2.59 2.56 2.68 2.74 2.67 2.74 2.81 2.74 2.87 3.02 2.95 2.59 2.36 2.10
0.62 0.60 0.67 0.85 1.09 1.12 1.21 1.33 1.57 1.85 2.11 2.28 2.41 2.51 2.69 2.77 2.68 2.83 2.58 2.45 2.14 2.00 2.06 2.27 2.33 2.26 2.18 2.20 2.64 2.63 2.65 2.75 2.71 2.57 2.88 2.90 2.67 2.86 3.02 3.14 3.18 2.85 2.64
0.53 0.53 0.60 0.80 0.87 0.90 1.00 1.15 1.36 1.53 1.75 1.99 2.20 2.27 2.26 2.27 2.41 2.56 2.50 2.34 2.26 2.02 2.09 2.16 2.37 2.47 2.55 2.59 2.76 2.69 2.69 2.90 2.86 2.81 3.01 2.97 2.77 2.77 2.89 3.12 3.35 3.41 3.20
0.58 0.55 0.56 0.65 0.72 0.77 0.88 1.09 1.29 1.31 1.54 1.93 2.20 2.15 2.19 2.13 2.28 2.26 2.22 2.25 2.17 2.12 2.20 2.22 2.30 2.45 2.55 2.61 2.76 2.76 2.80 2.98 3.00 3.06 3.13 2.99 2.71 2.85 2.89 3.01 3.32 3.59 3.65
0.63 0.61 0.60 0.60 0.72 0.65 0.73 0.91 1.05 1.20 1.50 1.84 2.16 2.29 2.21 2.20 2.26 2.09 2.03 2.13 2.13 2.12 2.23 2.26 2.23 2.20 2.33 2.53 2.74 2.68 2.85 2.97 3.01 2.98 2.90 2.81 2.84 3.00 2.92 3.06 3.22 3.45 3.70
0.51 0.48 0.47 0.54 0.52 0.52 0.61 0.93 1.27 1.61 1.79 2.10 2.46 2.63 2.43 2.21 2.07 1.89 1.86 1.97 2.15 2.19 2.20 2.21 2.19 2.09 2.20 2.46 2.61 2.71 2.96 3.10 2.98 2.89 2.88 2.75 2.88 2.98 2.96 3.04 3.02 3.11 3.44
0.53 0.51 0.47 0.55 0.55 0.53 0.55 0.69 0.87 1.26 1.59 1.95 2.34 2.40 2.16 1.94 1.89 1.86 1.87 1.97 2.14 2.16 2.15 2.20 2.23 2.30 2.42 2.56 2.68 2.79 2.96 2.94 2.83 2.85 2.78 2.65 2.75 2.69 2.76 2.80 2.82 2.82 2.94
0.66 0.59 0.57 0.56 0.56 0.56 0.55 0.65 0.76 0.86 1.09 1.56 1.90 1.90 1.75 1.70 1.74 1.75 1.78 1.79 1.88 1.93 1.98 2.18 2.38 2.50 2.63 2.72 2.77 2.78 2.74 2.73 2.62 2.51 2.44 2.47 2.60 2.70 2.71 2.61 2.60 2.68 2.82
0.66 0.61 0.61 0.68 0.70 0.75 0.77 0.77 0.80 0.83 1.03 1.52 1.75 1.71 1.64 1.67 1.64 1.61 1.71 1.77 1.83 1.87 2.10 2.25 2.33 2.37 2.40 2.47 2.66 2.63 2.52 2.50 2.38 2.28 2.11 2.15 2.48 2.64 2.62 2.41 2.52 2.60 2.66
0.65 0.62 0.55 0.65 0.76 0.83 0.86 0.87 0.93 0.99 1.12 1.45 1.72 1.68 1.60 1.58 1.50 1.56 1.67 1.78 1.87 2.05 2.23 2.22 2.20 2.16 1.82 1.94 2.10 2.13 2.14 2.19 2.17 2.05 1.98 1.97 2.05 2.08 2.13 2.14 2.17 2.24 2.31
0.63 0.63 0.67 0.75 0.95 0.89 0.92 1.00 0.93 0.99 1.17 1.49 1.72 1.76 1.67 1.63 1.59 1.54 1.70 1.88 2.08 2.26 2.37 2.32 2.25 2.09 1.96 1.86 1.76 1.75 1.81 1.95 1.97 2.00 2.07 1.78 1.59 1.74 1.77 1.92 1.92 1.86 1.96
0.71 0.79 0.77 0.82 0.91 0.91 0.96 1.03 1.04 1.07 1.22 1.45 1.69 1.79 1.77 1.81 1.88 1.90 1.95 2.13 2.36 2.51 2.52 2.48 2.37 2.25 2.13 2.03 1.84 1.82 1.74 1.83 1.86 1.87 1.91 1.86 1.73 1.69 1.81 1.91 1.86 1.71 1.67
0.82 0.88 0.97 1.01 1.09 1.09 1.04 1.10 1.25 1.28 1.35 1.42 1.65 1.80 1.87 1.97 2.00 2.07 2.31 2.49 2.65 2.67 2.62 2.67 2.56 2.43 2.40 2.22 1.87 1.70 1.62 1.77 1.81 1.82 1.77 1.73 1.66 1.73 1.61 1.58 1.61 1.62 1.60
0.98 0.98 1.05 1.11 1.14 1.18 1.24 1.29 1.42 1.58 1.70 1.77 1.86 2.09 2.30 2.48 2.56 2.63 2.71 2.77 2.87 2.80 2.79 2.70 2.68 2.55 2.49 2.37 1.85 1.58 1.50 1.69 1.74 1.81 1.76 1.64 1.49 1.49 1.38 1.35 1.50 1.50 1.50
0.94 1.02 1.06 1.16 1.24 1.25 1.40 1.66 1.79 1.88 2.03 2.20 2.25 2.45 2.79 2.98 2.97 3.04 2.95 2.87 2.85 2.87 2.86 2.74 2.63 2.55 2.45 2.34 1.89 1.69 1.63 1.77 1.87 1.82 1.74 1.67 1.55 1.35 1.32 1.27 1.31 1.39 1.41
0.88 0.99 1.08 1.16 1.35 1.60 1.80 2.08 2.24 2.26 2.34 2.49 2.67 2.92 3.18 3.05 2.97 3.14 3.03 3.02 3.08 3.06 2.95 2.85 2.73 2.72 2.61 2.35 2.00 1.76 1.76 1.84 1.91 1.96 1.92 1.83 1.61 1.36 1.28 1.19 1.17 1.16 1.10
0.87 0.96 1.06 1.24 1.45 1.75 2.14 2.39 2.46 2.60 2.63 2.70 2.86 2.98 3.06 3.19 3.32 3.38 3.25 3.16 3.14 3.08 2.88 2.76 2.58 2.46 2.52 2.51 2.07 1.76 1.77 1.82 1.81 1.96 2.03 1.77 1.51 1.35 1.18 1.17 1.17 1.06 0.96
0.95 1.00 1.11 1.32 1.63 1.94 2.28 2.43 2.49 2.52 2.53 2.58 2.61 2.73 2.90 3.04 3.15 3.37 3.37 3.23 3.05 2.94 2.85 2.79 2.63 2.50 2.48 2.42 2.08 1.75 1.70 1.76 1.72 1.77 1.86 1.71 1.54 1.38 1.23 1.16 1.12 1.05 1.09
1.04 1.14 1.25 1.36 1.52 1.78 2.05 2.18 2.34 2.43 2.59 2.63 2.56 2.50 2.52 2.66 2.81 2.93 3.00 2.93 2.88 2.72 2.59 2.44 2.36 2.31 2.29 2.26 2.04 1.79 1.72 1.80 1.86 1.84 1.83 1.79 1.64 1.50 1.37 1.33 1.36 1.40 1.40
1.01 1.14 1.28 1.45 1.60 1.76 1.95 2.06 2.24 2.40 2.55 2.56 2.45 2.42 2.38 2.45 2.49 2.49 2.44 2.30 2.20 2.04 1.86 1.77 1.70 1.69 1.73 1.86 1.70 1.56 1.61 1.76 1.86 1.74 1.68 1.76 1.74 1.64 1.55 1.50 1.51 1.52 1.48

GEFSMW_prec_meanprecacc_306.txt.gz
Total_Precipitation_Accumulation
1.99 2.39 2.77 3.23 3.68 4.20 4.96 5.66 6.25 6.34 6.21 5.84 5.47 5.24 4.79 4.48 4.21 3.95 3.79 3.52 3.24 3.11 3.48 3.23 3.57 3.37 3.34 3.20 3.16 3.32 3.38 3.03 3.20 3.56 3.11 2.57 2.26 2.15 1.97 1.96 2.02 1.95 2.07
1.93 2.30 2.85 3.17 3.53 4.06 4.64 5.06 5.15 4.92 4.85 4.90 4.80 4.55 4.56 4.40 4.34 4.17 4.02 3.49 3.28 3.16 2.97 3.20 3.02 2.98 3.11 2.92 2.85 3.06 3.07 2.76 3.04 3.33 3.42 2.87 2.62 2.20 1.64 1.80 1.94 2.05 2.28
1.55 1.91 2.51 2.85 3.04 3.55 3.90 3.92 3.86 3.80 3.95 4.02 3.97 4.02 4.28 4.35 4.43 4.38 4.13 3.69 3.47 3.31 3.14 3.04 2.84 2.80 2.64 2.81 2.84 2.88 3.00 2.99 2.87 2.92 3.25 2.98 2.66 2.25 1.78 1.70 1.93 2.26 2.52
1.32 1.63 1.98 2.23 2.52 2.80 2.94 2.93 3.00 3.14 3.27 3.36 3.38 3.26 3.29 3.57 3.84 4.07 4.15 4.01 3.74 3.50 3.18 2.98 2.75 2.59 2.45 2.76 2.45 2.56 2.89 3.10 2.79 2.70 2.67 2.64 2.77 2.67 2.30 1.86 1.70 1.96 2.17
1.36 1.55 1.68 1.87 1.98 2.05 2.18 2.24 2.52 2.93 3.14 3.26 3.40 3.30 2.98 2.99 3.07 3.23 3.42 3.42 3.43 3.25 2.90 2.77 2.70 2.51 2.37 2.43 2.42 2.73 2.75 2.74 2.68 2.74 2.67 2.77 2.95 2.75 2.60 2.28 2.13 2.20 2.07
1.07 1.28 1.57 1.69 1.67 1.64 1.79 2.01 2.33 2.84 3.14 3.27 3.21 3.18 3.10 3.08 3.01 3.00 3.09 2.99 2.97 2.91 2.66 2.50 2.59 2.44 2.36 2.41 2.42 2.55 2.61 2.75 2.82 2.81 2.76 2.83 2.83 2.86 3.03 2.67 2.43 2.38 2.07
0.85 0.84 1.05 1.32 1.31 1.27 1.45 1.71 1.92 2.34 2.64 2.85 2.81 2.74 2.87 2.95 2.80 2.65 2.61 2.57 2.43 2.38 2.34 2.39 2.50 2.34 2.32 2.42 2.57 2.62 2.60 2.73 2.78 2.71 2.78 2.86 2.79 2.90 3.05 2.98 2.62 2.37 2.11
0.65 0.62 0.68 0.87 1.11 1.14 1.23 1.36 1.59 1.88 2.14 2.32 2.45 2.55 2.73 2.81 2.71 2.85 2.61 2.48 2.16 2.03 2.10 2.31 2.37 2.30 2.22 2.25 2.68 2.67 2.69 2.80 2.76 2.61 2.93 2.96 2.74 2.91 3.07 3.19 3.24 2.89 2.66
0.54 0.55 0.61 0.82 0.89 0.93 1.02 1.17 1.37 1.57 1.80 2.03 2.25 2.33 2.31 2.31 2.45 2.59 2.53 2.37 2.29 2.05 2.12 2.19 2.41 2.51 2.60 2.64 2.79 2.72 2.73 2.94 2.90 2.85 3.06 3.02 2.82 2.81 2.93 3.17 3.43 3.49 3.27
0.59 0.56 0.57 0.67 0.73 0.79 0.90 1.10 1.30 1.33 1.57 1.96 2.24 2.21 2.27 2.19 2.33 2.29 2.25 2.30 2.22 2.16 2.23 2.25 2.34 2.50 2.60 2.65 2.80 2.79 2.82 3.00 3.02 3.09 3.17 3.03 2.77 2.90 2.92 3.04 3.38 3.68 3.75
0.65 0.62 0.61 0.61 0.74 0.67 0.75 0.92 1.07 1.23 1.54 1.90 2.23 2.37 2.30 2.26 2.31 2.14 2.08 2.19 2.19 2.16 2.26 2.29 2.29 2.27 2.38 2.57 2.79 2.72 2.86 2.98 3.03 3.01 2.94 2.86 2.90 3.04 2.94 3.08 3.26 3.51 3.76
0.53 0.50 0.48 0.54 0.54 0.55 0.65 0.96 1.29 1.65 1.85 2.18 2.53 2.69 2.48 2.26 2.12 1.94 1.90 2.02 2.19 2.23 2.24 2.26 2.25 2.15 2.24 2.50 2.66 2.75 2.99 3.12 3.01 2.93 2.92 2.79 2.91 3.01 2.97 3.05 3.04 3.15 3.48
0.54 0.52 0.48 0.56 0.57 0.56 0.58 0.72 0.90 1.29 1.64 1.99 2.36 2.42 2.19 1.98 1.95 1.92 1.93 2.03 2.19 2.22 2.21 2.25 2.28 2.34 2.46 2.62 2.75 2.84 3.01 2.98 2.86 2.88 2.81 2.67 2.78 2.70 2.77 2.82 2.83 2.84 2.97
0.67 0.60 0.58 0.57 0.58 0.59 0.57 0.67 0.78 0.87 1.13 1.60 1.93 1.93 1.78 1.74 1.79 1.81 1.84 1.84 1.94 2.00 2.06 2.24 2.42 2.54 2.68 2.76 2.81 2.83 2.79 2.77 2.66 2.54 2.47 2.48 2.62 2.72 2.72 2.63 2.61 2.69 2.84
0.68 0.63 0.62 0.69 0.71 0.77 0.78 0.78 0.81 0.84 1.03 1.54 1.78 1.76 1.68 1.72 1.70 1.68 1.79 1.85 1.89 1.92 2.17 2.33 2.41 2.45 2.47 2.53 2.73 2.69 2.56 2.54 2.41 2.30 2.13 2.16 2.50 2.65 2.63 2.42 2.53 2.61 2.67
0.66 0.63 0.56 0.65 0.77 0.84 0.87 0.88 0.93 0.99 1.13 1.47 1.73 1.72 1.63 1.61 1.55 1.62 1.75 1.87 1.95 2.12 2.30 2.29 2.28 2.24 1.89 2.00 2.17 2.18 2.17 2.21 2.19 2.06 1.99 1.98 2.06 2.09 2.14 2.16 2.18 2.25 2.33
0.64 0.64 0.68 0.75 0.95 0.90 0.94 1.01 0.94 1.00 1.18 1.51 1.74 1.78 1.70 1.66 1.63 1.59 1.77 1.97 2.18 2.36 2.45 2.39 2.32 2.15 2.01 1.91 1.80 1.79 1.83 1.98 2.00 2.02 2.08 1.79 1.60 1.75 1.77 1.93 1.93 1.88 1.99
0.72 0.80 0.78 0.83 0.92 0.92 0.98 1.05 1.06 1.09 1.24 1.49 1.72 1.81 1.79 1.83 1.93 1.94 2.01 2.20 2.44 2.60 2.60 2.55 2.44 2.31 2.18 2.08 1.89 1.87 1.78 1.86 1.88 1.89 1.93 1.87 1.74 1.70 1.82 1.93 1.88 1.73 1.69
0.84 0.89 0.98 1.02 1.10 1.10 1.06 1.13 1.29 1.33 1.38 1.45 1.69 1.85 1.92 2.02 2.05 2.11 2.37 2.57 2.74 2.77 2.71 2.76 2.65 2.51 2.46 2.29 1.94 1.77 1.68 1.82 1.85 1.86 1.80 1.74 1.67 1.75 1.64 1.60 1.62 1.64 1.62
0.99 0.99 1.06 1.12 1.15 1.19 1.26 1.33 1.46 1.61 1.73 1.82 1.97 2.22 2.41 2.57 2.65 2.72 2.77 2.84 2.95 2.90 2.90 2.81 2.76 2.62 2.55 2.45 1.94 1.67 1.58 1.77 1.81 1.86 1.79 1.66 1.51 1.51 1.42 1.38 1.51 1.52 1.52
0.94 1.03 1.06 1.16 1.25 1.26 1.42 1.69 1.83 1.91 2.07 2.23 2.31 2.56 2.93 3.14 3.09 3.11 3.00 2.92 2.92 2.94 2.92 2.80 2.71 2.62 2.52 2.42 1.97 1.77 1.72 1.86 1.94 1.88 1.78 1.70 1.58 1.39 1.35 1.30 1.33 1.40 1.43
0.88 1.00 1.08 1.17 1.36 1.61 1.81 2.10 2.27 2.33 2.40 2.55 2.78 3.05 3.29 3.12 3.02 3.18 3.07 3.07 3.13 3.11 3.00 2.90 2.78 2.78 2.69 2.44 2.08 1.85 1.85 1.92 1.97 2.00 1.96 1.86 1.66 1.42 1.34 1.24 1.20 1.19 1.12
0.88 0.97 1.07 1.25 1.45 1.76 2.16 2.41 2.50 2.71 2.72 2.76 2.92 3.04 3.11 3.22 3.35 3.41 3.28 3.20 3.19 3.12 2.94 2.82 2.63 2.54 2.63 2.62 2.17 1.86 1.87 1.91 1.86 2.00 2.08 1.81 1.58 1.42 1.25 1.23 1.22 1.10 0.99
0.97 1.02 1.12 1.33 1.64 1.94 2.29 2.45 2.51 2.57 2.60 2.64 2.66 2.77 2.95 3.08 3.20 3.41 3.41 3.27 3.10 2.99 2.90 2.85 2.70 2.60 2.61 2.55 2.19 1.86 1.79 1.84 1.77 1.82 1.91 1.77 1.61 1.46 1.30 1.23 1.18 1.09 1.12
1.05 1.15 1.26 1.37 1.53 1.79 2.06 2.19 2.37 2.49 2.66 2.71 2.63 2.56 2.60 2.72 2.87 2.98 3.07 2.99 2.95 2.80 2.66 2.51 2.44 2.38 2.39 2.39 2.16 1.89 1.81 1.89 1.94 1.92 1.91 1.87 1.72 1.58 1.44 1.38 1.40 1.43 1.43
1.02 1.15 1.29 1.46 1.62 1.78 1.97 2.07 2.27 2.44 2.61 2.63 2.53 2.49 2.46 2.53 2.58 2.59 2.55 2.41 2.30 2.14 1.94 1.86 1.79 1.76 1.81 1.97 1.80 1.65 1.69 1.86 1.97 1.86 1.78 1.86 1.82 1.70 1.59 1.52 1.53 1.53 1.49

GEFSMW_prec_meanprecacc_312.txt.gz
Total_Precipitation_Accumulation
2.02 2.41 2.78 3.25 3.69 4.21 4.98 5.67 6.26 6.37 6.23 5.86 5.48 5.24 4.79 4.49 4.23 3.98 3.81 3.55 3.27 3.15 3.52 3.26 3.61 3.42 3.39 3.24 3.20 3.36 3.40 3.05 3.22 3.58 3.15 2.60 2.29 2.18 2.01 2.01 2.11 2.03 2.16
1.95 2.32 2.87 3.18 3.54 4.09 4.67 5.08 5.16 4.94 4.87 4.91 4.81 4.56 4.57 4.41 4.36 4.19 4.04 3.52 3.33 3.21 3.00 3.24 3.07 3.03 3.17 2.96 2.89 3.10 3.10 2.79 3.06 3.35 3.44 2.89 2.64 2.22 1.68 1.87 2.02 2.09 2.34
1.57 1.92 2.53 2.87 3.05 3.58 3.95 3.95 3.88 3.82 3.96 4.03 3.97 4.02 4.28 4.37 4.45 4.41 4.16 3.73 3.52 3.36 3.20 3.09 2.91 2.85 2.68 2.85 2.88 2.91 3.03 3.01 2.90 2.95 3.28 2.99 2.68 2.27 1.80 1.74 1.97 2.29 2.55
1.33 1.64 1.99 2.25 2.53 2.83 3.00 2.97 3.03 3.16 3.29 3.37 3.39 3.27 3.31 3.59 3.86 4.10 4.18 4.06 3.80 3.57 3.25 3.05 2.81 2.65 2.50 2.80 2.49 2.60 2.92 3.13 2.82 2.75 2.70 2.67 2.79 2.69 2.32 1.88 1.72 1.98 2.19
1.38 1.57 1.69 1.88 2.00 2.09 2.23 2.32 2.56 2.95 3.16 3.27 3.41 3.31 2.98 3.00 3.09 3.26 3.45 3.46 3.48 3.33 2.98 2.85 2.76 2.57 2.41 2.47 2.48 2.78 2.79 2.78 2.71 2.78 2.72 2.82 2.98 2.78 2.63 2.31 2.16 2.22 2.09
1.09 1.30 1.59 1.70 1.69 1.67 1.83 2.07 2.38 2.88 3.17 3.29 3.23 3.20 3.11 3.10 3.04 3.03 3.12 3.03 3.02 2.97 2.72 2.58 2.66 2.50 2.41 2.47 2.48 2.60 2.66 2.81 2.88 2.86 2.83 2.89 2.88 2.91 3.08 2.72 2.46 2.40 2.08
0.87 0.87 1.07 1.33 1.33 1.29 1.48 1.74 1.96 2.43 2.74 2.90 2.82 2.76 2.89 2.98 2.84 2.67 2.64 2.62 2.47 2.43 2.41 2.46 2.56 2.41 2.41 2.50 2.62 2.67 2.65 2.77 2.83 2.76 2.85 2.93 2.87 2.97 3.11 3.03 2.64 2.38 2.11
0.66 0.63 0.69 0.88 1.13 1.16 1.25 1.39 1.62 1.91 2.21 2.40 2.48 2.58 2.77 2.85 2.77 2.92 2.66 2.52 2.21 2.07 2.14 2.35 2.40 2.34 2.29 2.31 2.73 2.71 2.73 2.84 2.79 2.65 2.98 3.03 2.81 2.99 3.13 3.25 3.29 2.92 2.68
0.55 0.55 0.62 0.82 0.91 0.94 1.03 1.19 1.39 1.59 1.82 2.07 2.28 2.37 2.37 2.38 2.51 2.66 2.60 2.44 2.36 2.11 2.15 2.22 2.43 2.53 2.62 2.67 2.84 2.77 2.77 2.97 2.93 2.89 3.09 3.05 2.86 2.88 2.98 3.22 3.49 3.56 3.31
0.60 0.56 0.58 0.67 0.74 0.80 0.92 1.12 1.32 1.35 1.58 1.98 2.26 2.24 2.32 2.25 2.40 2.38 2.36 2.39 2.29 2.22 2.28 2.29 2.37 2.52 2.62 2.67 2.82 2.82 2.87 3.04 3.05 3.13 3.20 3.06 2.81 2.96 2.97 3.09 3.43 3.73 3.79
0.65 0.62 0.62 0.62 0.74 0.68 0.77 0.95 1.09 1.24 1.55 1.92 2.25 2.38 2.33 2.30 2.37 2.21 2.15 2.26 2.26 2.23 2.32 2.34 2.33 2.30 2.41 2.59 2.82 2.76 2.91 3.03 3.06 3.04 2.96 2.88 2.93 3.10 3.01 3.12 3.29 3.55 3.80
0.53 0.50 0.49 0.55 0.55 0.57 0.69 0.99 1.31 1.65 1.86 2.19 2.54 2.71 2.51 2.29 2.14 1.96 1.94 2.08 2.24 2.28 2.30 2.31 2.31 2.23 2.32 2.57 2.72 2.81 3.05 3.17 3.04 2.96 2.95 2.81 2.94 3.04 3.01 3.07 3.06 3.17 3.51
0.55 0.53 0.49 0.57 0.58 0.57 0.59 0.73 0.90 1.30 1.65 2.00 2.37 2.44 2.22 2.00 1.96 1.94 1.97 2.09 2.27 2.30 2.27 2.31 2.33 2.40 2.55 2.73 2.84 2.92 3.07 3.03 2.89 2.90 2.83 2.70 2.80 2.72 2.79 2.84 2.85 2.85 2.99
0.67 0.61 0.59 0.58 0.58 0.59 0.58 0.68 0.78 0.88 1.14 1.62 1.95 1.95 1.81 1.76 1.81 1.85 1.90 1.91 2.02 2.08 2.14 2.30 2.46 2.58 2.73 2.83 2.87 2.89 2.85 2.82 2.68 2.57 2.49 2.51 2.64 2.74 2.74 2.65 2.63 2.71 2.85
0.68 0.63 0.62 0.70 0.72 0.77 0.78 0.79 0.82 0.84 1.04 1.56 1.82 1.78 1.70 1.74 1.73 1.72 1.84 1.92 1.97 1.99 2.23 2.39 2.46 2.50 2.51 2.57 2.77 2.73 2.59 2.56 2.43 2.31 2.15 2.18 2.52 2.67 2.65 2.44 2.55 2.63 2.69
0.66 0.64 0.56 0.66 0.77 0.85 0.88 0.89 0.95 1.01 1.14 1.50 1.79 1.75 1.65 1.63 1.58 1.66 1.80 1.92 2.00 2.17 2.36 2.36 2.34 2.29 1.93 2.04 2.21 2.22 2.21 2.24 2.21 2.08 2.02 2.01 2.08 2.11 2.17 2.19 2.22 2.28 2.34
0.64 0.65 0.68 0.76 0.96 0.91 0.94 1.02 0.96 1.02 1.20 1.55 1.80 1.82 1.73 1.69 1.66 1.62 1.80 2.00 2.22 2.42 2.50 2.44 2.38 2.20 2.06 1.95 1.84 1.83 1.88 2.02 2.03 2.06 2.12 1.82 1.63 1.78 1.80 1.96 1.95 1.89 2.01
0.73 0.81 0.79 0.84 0.93 0.93 0.99 1.06 1.08 1.12 1.28 1.56 1.77 1.84 1.82 1.86 1.95 1.96 2.03 2.23 2.48 2.66 2.67 2.62 2.51 2.38 2.23 2.13 1.93 1.91 1.83 1.90 1.93 1.95 1.99 1.93 1.80 1.76 1.87 1.98 1.92 1.76 1.72
0.85 0.90 0.99 1.02 1.11 1.11 1.07 1.14 1.30 1.35 1.41 1.48 1.72 1.90 1.98 2.08 2.09 2.14 2.40 2.60 2.77 2.80 2.74 2.82 2.73 2.58 2.52 2.34 1.99 1.82 1.72 1.86 1.89 1.89 1.85 1.80 1.72 1.80 1.69 1.64 1.65 1.66 1.63
1.00 1.00 1.07 1.13 1.15 1.20 1.27 1.34 1.47 1.63 1.75 1.85 2.01 2.29 2.47 2.61 2.67 2.74 2.80 2.86 2.96 2.92 2.92 2.84 2.80 2.67 2.61 2.52 2.01 1.75 1.65 1.82 1.85 1.90 1.83 1.70 1.55 1.56 1.47 1.41 1.54 1.54 1.55
0.94 1.03 1.06 1.17 1.26 1.27 1.42 1.70 1.84 1.94 2.12 2.29 2.38 2.63 2.98 3.16 3.11 3.13 3.01 2.94 2.93 2.95 2.94 2.83 2.73 2.65 2.56 2.46 2.02 1.84 1.80 1.91 1.98 1.92 1.82 1.74 1.62 1.43 1.39 1.34 1.37 1.44 1.47
0.89 1.00 1.09 1.18 1.37 1.63 1.83 2.11 2.29 2.36 2.45 2.60 2.90 3.13 3.31 3.13 3.04 3.20 3.08 3.08 3.14 3.12 3.02 2.92 2.81 2.81 2.71 2.47 2.13 1.92 1.91 1.96 2.02 2.05 2.00 1.90 1.69 1.46 1.39 1.29 1.25 1.24 1.16
0.89 0.99 1.09 1.27 1.48 1.78 2.17 2.43 2.52 2.73 2.74 2.80 3.01 3.07 3.13 3.24 3.37 3.43 3.30 3.22 3.21 3.14 2.95 2.85 2.66 2.58 2.67 2.67 2.24 1.96 1.97 1.98 1.91 2.04 2.13 1.87 1.63 1.47 1.30 1.29 1.28 1.15 1.03
0.98 1.03 1.15 1.35 1.65 1.96 2.30 2.46 2.52 2.57 2.61 2.65 2.69 2.80 2.98 3.11 3.22 3.44 3.43 3.30 3.12 3.01 2.93 2.88 2.73 2.63 2.65 2.59 2.24 1.91 1.86 1.91 1.83 1.86 1.95 1.82 1.65 1.51 1.36 1.31 1.27 1.17 1.18
1.06 1.17 1.28 1.39 1.54 1.80 2.07 2.20 2.38 2.50 2.67 2.72 2.65 2.57 2.61 2.75 2.89 3.01 3.10 3.03 2.99 2.83 2.70 2.55 2.48 2.42 2.42 2.43 2.20 1.94 1.88 1.97 2.03 2.00 1.98 1.92 1.78 1.63 1.50 1.44 1.46 1.50 1.48
1.03 1.17 1.31 1.47 1.63 1.79 1.98 2.09 2.29 2.45 2.61 2.64 2.54 2.50 2.47 2.54 2.60 2.61 2.58 2.45 2.35 2.20 2.02 1.95 1.87 1.82 1.88 2.06 1.90 1.75 1.80 1.99 2.10 1.97 1.90 1.97 1.90 1.77 1.65 1.57 1.56 1.57 1.52

GEFSMW_prec_meanprecacc_318.txt.gz
Total_Precipitation_Accumulation
2.03 2.42 2.79 3.25 3.69 4.23 5.02 5.69 6.28 6.39 6.24 5.88 5.51 5.27 4.83 4.54 4.28 4.01 3.85 3.58 3.31 3.20 3.58 3.30 3.67 3.51 3.47 3.30 3.26 3.44 3.47 3.13 3.30 3.64 3.21 2.66 2.34 2.23 2.04 2.04 2.16 2.07 2.20
1.95 2.32 2.87 3.19 3.55 4.12 4.72 5.10 5.18 4.97 4.89 4.94 4.85 4.57 4.59 4.45 4.40 4.23 4.08 3.55 3.36 3.25 3.05 3.29 3.14 3.12 3.26 3.03 2.96 3.17 3.17 2.85 3.14 3.42 3.51 2.96 2.69 2.26 1.70 1.89 2.06 2.15 2.40
1.57 1.92 2.53 2.87 3.06 3.60 3.97 3.97 3.93 3.86 3.99 4.07 4.00 4.04 4.31 4.40 4.50 4.46 4.20 3.76 3.56 3.43 3.26 3.16 2.99 2.94 2.76 2.92 2.95 2.98 3.09 3.09 2.98 3.02 3.35 3.07 2.74 2.31 1.83 1.77 2.01 2.35 2.63
1.33 1.64 2.00 2.25 2.54 2.84 3.02 3.00 3.11 3.22 3.31 3.40 3.41 3.30 3.33 3.61 3.90 4.14 4.22 4.10 3.84 3.62 3.32 3.11 2.88 2.72 2.56 2.86 2.55 2.67 2.98 3.20 2.89 2.80 2.75 2.72 2.84 2.73 2.35 1.91 1.77 2.04 2.26
1.38 1.57 1.69 1.88 2.00 2.10 2.26 2.34 2.60 3.01 3.19 3.30 3.44 3.34 3.01 3.03 3.13 3.30 3.50 3.52 3.52 3.37 3.03 2.91 2.83 2.65 2.48 2.53 2.53 2.84 2.86 2.83 2.76 2.82 2.76 2.85 3.02 2.81 2.67 2.35 2.21 2.27 2.13
1.09 1.31 1.59 1.70 1.69 1.68 1.84 2.07 2.38 2.91 3.21 3.33 3.26 3.23 3.14 3.15 3.08 3.08 3.18 3.09 3.09 3.03 2.78 2.62 2.71 2.58 2.50 2.55 2.56 2.66 2.73 2.86 2.91 2.90 2.86 2.92 2.92 2.95 3.12 2.77 2.52 2.46 2.13
0.87 0.88 1.07 1.34 1.33 1.30 1.49 1.75 1.97 2.44 2.79 2.97 2.86 2.80 2.94 3.05 2.90 2.72 2.68 2.67 2.54 2.49 2.48 2.52 2.62 2.48 2.52 2.60 2.72 2.75 2.73 2.84 2.88 2.81 2.89 2.97 2.91 3.01 3.15 3.07 2.70 2.43 2.14
0.67 0.63 0.70 0.89 1.14 1.17 1.26 1.39 1.63 1.92 2.25 2.47 2.54 2.62 2.80 2.90 2.82 2.99 2.71 2.58 2.26 2.12 2.19 2.40 2.45 2.40 2.36 2.39 2.82 2.80 2.80 2.90 2.84 2.68 3.02 3.06 2.85 3.03 3.17 3.29 3.33 2.95 2.70
0.56 0.56 0.63 0.83 0.91 0.95 1.04 1.20 1.40 1.60 1.83 2.09 2.33 2.41 2.40 2.41 2.56 2.72 2.65 2.48 2.39 2.14 2.18 2.25 2.46 2.57 2.66 2.71 2.89 2.81 2.82 3.02 2.97 2.91 3.11 3.07 2.89 2.92 3.02 3.24 3.52 3.60 3.35
0.60 0.57 0.58 0.67 0.74 0.81 0.92 1.13 1.32 1.36 1.59 1.99 2.28 2.27 2.36 2.28 2.43 2.40 2.39 2.42 2.32 2.24 2.30 2.31 2.39 2.55 2.65 2.70 2.86 2.86 2.91 3.08 3.09 3.16 3.23 3.09 2.84 3.00 3.01 3.12 3.45 3.76 3.84
0.66 0.62 0.62 0.62 0.75 0.69 0.78 0.96 1.09 1.25 1.56 1.93 2.26 2.40 2.35 2.31 2.38 2.22 2.16 2.27 2.28 2.26 2.34 2.36 2.35 2.32 2.43 2.63 2.87 2.81 2.96 3.07 3.10 3.07 2.99 2.91 2.96 3.15 3.06 3.17 3.32 3.59 3.85
0.54 0.50 0.49 0.55 0.55 0.57 0.69 0.99 1.31 1.66 1.87 2.19 2.55 2.72 2.52 2.30 2.15 1.97 1.95 2.09 2.25 2.30 2.33 2.34 2.33 2.24 2.34 2.61 2.76 2.85 3.09 3.22 3.09 3.01 2.99 2.85 2.98 3.08 3.06 3.12 3.10 3.21 3.56
0.55 0.53 0.49 0.57 0.59 0.57 0.59 0.73 0.91 1.30 1.65 2.01 2.38 2.45 2.23 2.01 1.97 1.95 1.98 2.10 2.29 2.31 2.30 2.33 2.36 2.43 2.59 2.77 2.88 2.96 3.11 3.07 2.94 2.98 2.89 2.75 2.85 2.76 2.83 2.87 2.89 2.89 3.03
0.68 0.62 0.59 0.58 0.58 0.59 0.58 0.68 0.78 0.88 1.14 1.62 1.96 1.95 1.82 1.77 1.82 1.86 1.92 1.94 2.04 2.11 2.16 2.33 2.50 2.61 2.77 2.89 2.92 2.96 2.92 2.88 2.73 2.62 2.55 2.57 2.70 2.79 2.78 2.67 2.66 2.75 2.91
0.68 0.63 0.63 0.70 0.72 0.77 0.78 0.79 0.82 0.84 1.04 1.56 1.83 1.79 1.71 1.75 1.74 1.74 1.86 1.94 1.99 2.01 2.26 2.41 2.49 2.53 2.55 2.61 2.81 2.78 2.67 2.64 2.48 2.35 2.18 2.20 2.55 2.70 2.68 2.46 2.58 2.67 2.74
0.67 0.65 0.57 0.66 0.77 0.85 0.88 0.89 0.95 1.01 1.14 1.50 1.79 1.76 1.66 1.64 1.59 1.67 1.81 1.94 2.02 2.19 2.38 2.38 2.38 2.33 1.96 2.07 2.25 2.26 2.25 2.29 2.25 2.12 2.05 2.04 2.11 2.14 2.19 2.21 2.25 2.33 2.40
0.65 0.65 0.69 0.77 0.96 0.91 0.94 1.02 0.96 1.02 1.20 1.56 1.81 1.83 1.74 1.70 1.67 1.63 1.81 2.01 2.24 2.43 2.52 2.46 2.40 2.23 2.10 1.99 1.89 1.87 1.92 2.06 2.08 2.10 2.17 1.85 1.65 1.81 1.83 1.99 1.99 1.93 2.05
0.73 0.81 0.79 0.84 0.93 0.93 0.99 1.06 1.08 1.12 1.28 1.57 1.79 1.87 1.85 1.88 1.96 1.98 2.05 2.24 2.50 2.68 2.69 2.65 2.53 2.39 2.25 2.16 1.97 1.96 1.88 1.95 1.97 1.99 2.03 1.97 1.84 1.81 1.92 2.02 1.96 1.80 1.75
0.86 0.91 0.99 1.03 1.12 1.11 1.07 1.15 1.30 1.36 1.42 1.49 1.73 1.93 2.05 2.12 2.10 2.15 2.42 2.62 2.79 2.82 2.77 2.85 2.76 2.61 2.55 2.37 2.02 1.86 1.76 1.90 1.93 1.93 1.88 1.83 1.75 1.85 1.75 1.70 1.70 1.71 1.68
1.01 1.01 1.07 1.13 1.16 1.21 1.28 1.35 1.47 1.63 1.76 1.86 2.02 2.31 2.52 2.65 2.68 2.76 2.82 2.89 2.99 2.94 2.95 2.87 2.82 2.70 2.64 2.56 2.04 1.78 1.67 1.84 1.87 1.92 1.87 1.75 1.59 1.61 1.52 1.45 1.58 1.58 1.58
0.95 1.04 1.07 1.17 1.27 1.28 1.43 1.71 1.85 1.95 2.13 2.30 2.38 2.64 2.99 3.17 3.13 3.15 3.04 2.96 2.96 2.97 2.97 2.85 2.75 2.67 2.58 2.49 2.05 1.87 1.82 1.93 2.01 1.94 1.83 1.76 1.65 1.47 1.44 1.38 1.40 1.48 1.52
0.89 1.01 1.10 1.18 1.38 1.64 1.84 2.12 2.30 2.37 2.45 2.61 2.91 3.14 3.31 3.14 3.05 3.21 3.10 3.11 3.17 3.14 3.04 2.94 2.83 2.83 2.73 2.50 2.17 1.96 1.94 2.00 2.05 2.07 2.02 1.93 1.73 1.50 1.44 1.34 1.30 1.30 1.23
0.89 0.99 1.10 1.28 1.48 1.79 2.19 2.44 2.53 2.74 2.75 2.81 3.01 3.08 3.14 3.25 3.38 3.44 3.31 3.24 3.23 3.16 2.98 2.87 2.68 2.59 2.69 2.70 2.28 2.00 2.01 2.04 1.96 2.08 2.17 1.93 1.68 1.52 1.35 1.34 1.35 1.24 1.11
0.99 1.04 1.15 1.36 1.66 1.97 2.31 2.47 2.54 2.59 2.62 2.66 2.70 2.81 2.99 3.12 3.23 3.45 3.45 3.32 3.14 3.04 2.95 2.90 2.76 2.66 2.68 2.63 2.27 1.95 1.92 1.97 1.89 1.92 2.02 1.89 1.72 1.57 1.43 1.38 1.35 1.24 1.26
1.07 1.17 1.28 1.39 1.55 1.80 2.08 2.21 2.39 2.51 2.68 2.73 2.66 2.58 2.62 2.75 2.90 3.02 3.11 3.05 3.00 2.86 2.73 2.57 2.51 2.46 2.46 2.48 2.24 1.98 1.93 2.04 2.11 2.07 2.04 1.98 1.84 1.69 1.55 1.50 1.53 1.56 1.55
1.04 1.17 1.31 1.47 1.63 1.80 1.99 2.10 2.30 2.47 2.63 2.65 2.54 2.51 2.47 2.55 2.61 2.62 2.59 2.46 2.36 2.22 2.05 1.98 1.91 1.87 1.92 2.09 1.94 1.80 1.86 2.05 2.18 2.06 1.96 2.03 1.96 1.82 1.71 1.64 1.64 1.64 1.60

GEFSMW_prec_meanprecacc_324.txt.gz
Total_Precipitation_Accumulation
2.04 2.42 2.79 3.25 3.70 4.24 5.05 5.74 6.32 6.43 6.30 5.95 5.58 5.33 4.88 4.59 4.30 4.03 3.88 3.63 3.36 3.25 3.64 3.37 3.75 3.60 3.57 3.39 3.36 3.54 3.58 3.24 3.40 3.74 3.28 2.72 2.38 2.28 2.10 2.09 2.21 2.12 2.25
1.96 2.34 2.88 3.19 3.56 4.13 4.74 5.13 5.21 5.01 4.94 5.02 4.93 4.65 4.65 4.49 4.43 4.26 4.11 3.57 3.39 3.30 3.10 3.35 3.19 3.18 3.35 3.14 3.08 3.30 3.30 2.95 3.22 3.51 3.61 3.06 2.79 2.32 1.74 1.93 2.10 2.19 2.44
1.60 1.97 2.54 2.87 3.07 3.61 3.98 3.98 3.95 3.90 4.04 4.14 4.08 4.12 4.37 4.45 4.53 4.49 4.25 3.80 3.60 3.48 3.31 3.20 3.03 3.00 2.85 3.04 3.08 3.11 3.23 3.19 3.06 3.09 3.45 3.19 2.84 2.38 1.88 1.81 2.05 2.39 2.67
1.33 1.65 2.00 2.26 2.54 2.85 3.03 3.01 3.13 3.25 3.34 3.45 3.49 3.37 3.39 3.66 3.94 4.19 4.28 4.17 3.89 3.66 3.36 3.14 2.93 2.78 2.63 2.96 2.66 2.77 3.09 3.30 2.96 2.86 2.80 2.78 2.92 2.81 2.44 1.99 1.85 2.11 2.32
1.38 1.57 1.69 1.89 2.01 2.11 2.27 2.35 2.61 3.02 3.21 3.33 3.50 3.42 3.08 3.09 3.19 3.37 3.57 3.59 3.59 3.42 3.07 2.95 2.88 2.70 2.53 2.61 2.63 2.96 2.96 2.92 2.82 2.87 2.81 2.90 3.09 2.89 2.76 2.44 2.29 2.35 2.21
1.09 1.31 1.59 1.71 1.70 1.69 1.86 2.09 2.39 2.92 3.23 3.35 3.30 3.31 3.23 3.22 3.15 3.15 3.26 3.17 3.17 3.09 2.82 2.67 2.77 2.63 2.55 2.62 2.63 2.75 2.83 2.96 2.99 2.95 2.91 2.96 2.97 3.01 3.20 2.86 2.61 2.55 2.22
0.88 0.88 1.07 1.34 1.34 1.30 1.50 1.76 1.98 2.45 2.80 2.98 2.88 2.84 3.00 3.12 2.96 2.79 2.76 2.75 2.60 2.54 2.51 2.56 2.67 2.54 2.57 2.66 2.80 2.84 2.82 2.94 2.96 2.87 2.94 3.00 2.94 3.05 3.20 3.14 2.77 2.51 2.20
0.67 0.64 0.70 0.89 1.14 1.17 1.27 1.41 1.64 1.93 2.27 2.49 2.56 2.64 2.83 2.95 2.88 3.07 2.79 2.64 2.31 2.16 2.23 2.44 2.49 2.44 2.40 2.44 2.90 2.90 2.91 3.01 2.93 2.76 3.10 3.12 2.88 3.06 3.21 3.34 3.40 3.02 2.74
0.59 0.62 0.68 0.85 0.93 0.95 1.04 1.21 1.42 1.62 1.85 2.11 2.34 2.43 2.42 2.43 2.59 2.77 2.71 2.53 2.44 2.18 2.22 2.29 2.50 2.60 2.69 2.75 2.94 2.88 2.90 3.12 3.06 3.00 3.20 3.14 2.94 2.96 3.04 3.28 3.58 3.67 3.42
0.63 0.62 0.63 0.68 0.75 0.81 0.93 1.14 1.34 1.38 1.61 2.00 2.29 2.28 2.37 2.29 2.44 2.42 2.40 2.43 2.34 2.27 2.32 2.34 2.42 2.58 2.69 2.74 2.90 2.91 2.97 3.15 3.16 3.23 3.31 3.16 2.90 3.06 3.05 3.15 3.49 3.82 3.92
0.67 0.64 0.63 0.63 0.75 0.70 0.79 0.97 1.11 1.27 1.58 1.94 2.27 2.41 2.35 2.32 2.39 2.22 2.17 2.28 2.29 2.27 2.36 2.37 2.37 2.35 2.47 2.67 2.91 2.84 3.01 3.13 3.17 3.13 3.05 2.96 3.01 3.20 3.11 3.22 3.37 3.64 3.93
0.54 0.50 0.49 0.55 0.56 0.58 0.70 1.00 1.31 1.67 1.89 2.21 2.55 2.72 2.52 2.30 2.16 1.97 1.95 2.10 2.27 2.32 2.34 2.35 2.35 2.27 2.37 2.65 2.80 2.89 3.15 3.29 3.17 3.08 3.06 2.91 3.04 3.14 3.11 3.18 3.15 3.27 3.63
0.56 0.54 0.50 0.58 0.59 0.57 0.59 0.73 0.91 1.31 1.66 2.02 2.38 2.45 2.23 2.02 1.98 1.96 1.99 2.12 2.31 2.34 2.31 2.34 2.37 2.45 2.61 2.80 2.91 3.01 3.17 3.13 3.01 3.06 2.97 2.82 2.93 2.83 2.89 2.93 2.94 2.94 3.08
0.68 0.62 0.60 0.59 0.59 0.60 0.58 0.68 0.79 0.88 1.15 1.63 1.97 1.96 1.83 1.78 1.83 1.87 1.93 1.95 2.06 2.13 2.19 2.34 2.51 2.63 2.79 2.90 2.94 2.99 2.98 2.94 2.79 2.70 2.63 2.64 2.78 2.86 2.85 2.74 2.72 2.81 2.96
0.69 0.64 0.64 0.72 0.74 0.79 0.80 0.80 0.82 0.85 1.05 1.57 1.84 1.80 1.73 1.77 1.75 1.75 1.87 1.95 2.00 2.04 2.28 2.43 2.51 2.55 2.57 2.62 2.83 2.81 2.70 2.68 2.54 2.42 2.26 2.29 2.63 2.78 2.76 2.53 2.65 2.73 2.79
0.67 0.65 0.58 0.67 0.79 0.87 0.89 0.90 0.96 1.01 1.14 1.52 1.82 1.79 1.69 1.66 1.60 1.68 1.82 1.95 2.03 2.21 2.40 2.40 2.39 2.34 1.97 2.09 2.26 2.28 2.27 2.31 2.28 2.16 2.12 2.11 2.18 2.22 2.27 2.28 2.31 2.38 2.45
0.65 0.66 0.70 0.78 0.98 0.92 0.94 1.02 0.96 1.02 1.21 1.58 1.83 1.87 1.77 1.72 1.70 1.64 1.82 2.02 2.25 2.44 2.54 2.48 2.42 2.25 2.12 2.01 1.90 1.89 1.94 2.08 2.10 2.13 2.20 1.90 1.71 1.90 1.92 2.09 2.09 2.01 2.10
0.73 0.81 0.80 0.86 0.94 0.93 0.99 1.06 1.08 1.13 1.30 1.60 1.84 1.92 1.89 1.90 1.98 1.99 2.07 2.26 2.51 2.69 2.71 2.66 2.55 2.41 2.26 2.17 1.98 1.97 1.89 1.97 1.99 2.01 2.06 2.01 1.88 1.86 2.01 2.11 2.05 1.88 1.83
0.86 0.91 1.00 1.05 1.13 1.12 1.08 1.16 1.31 1.37 1.44 1.53 1.80 2.00 2.08 2.14 2.12 2.17 2.43 2.64 2.81 2.84 2.80 2.87 2.77 2.63 2.57 2.38 2.03 1.86 1.78 1.93 1.96 1.96 1.91 1.87 1.80 1.92 1.84 1.78 1.78 1.80 1.77
1.01 1.01 1.08 1.14 1.17 1.22 1.30 1.36 1.49 1.65 1.78 1.88 2.04 2.32 2.53 2.67 2.70 2.77 2.84 2.91 3.01 2.97 2.98 2.89 2.83 2.72 2.66 2.58 2.05 1.78 1.69 1.87 1.90 1.95 1.89 1.79 1.63 1.66 1.59 1.52 1.64 1.65 1.66
0.95 1.04 1.07 1.18 1.28 1.30 1.45 1.73 1.87 1.96 2.14 2.31 2.39 2.65 3.00 3.19 3.14 3.17 3.07 2.99 2.98 3.00 3.00 2.88 2.78 2.70 2.60 2.50 2.06 1.88 1.83 1.95 2.04 1.97 1.87 1.80 1.69 1.50 1.47 1.42 1.45 1.53 1.59
0.89 1.01 1.10 1.19 1.39 1.65 1.85 2.14 2.32 2.38 2.46 2.62 2.92 3.16 3.33 3.16 3.06 3.24 3.14 3.14 3.20 3.17 3.07 2.97 2.86 2.90 2.78 2.52 2.18 1.97 1.95 2.02 2.08 2.10 2.05 1.97 1.78 1.54 1.48 1.38 1.34 1.34 1.27
0.90 1.00 1.10 1.29 1.49 1.80 2.20 2.46 2.54 2.74 2.75 2.82 3.03 3.10 3.16 3.26 3.39 3.46 3.34 3.27 3.26 3.19 3.01 2.91 2.72 2.66 2.74 2.73 2.31 2.02 2.03 2.06 1.98 2.10 2.19 1.96 1.72 1.55 1.38 1.38 1.40 1.28 1.16
1.00 1.05 1.17 1.38 1.67 1.98 2.33 2.50 2.56 2.60 2.63 2.67 2.72 2.84 3.02 3.15 3.26 3.48 3.47 3.34 3.16 3.06 2.97 2.93 2.80 2.72 2.74 2.68 2.31 1.99 1.96 2.01 1.92 1.95 2.05 1.91 1.75 1.60 1.45 1.41 1.37 1.27 1.29
1.09 1.19 1.30 1.42 1.57 1.82 2.11 2.23 2.40 2.53 2.70 2.74 2.67 2.60 2.64 2.77 2.92 3.05 3.13 3.06 3.02 2.87 2.75 2.59 2.54 2.51 2.51 2.52 2.27 2.01 1.96 2.08 2.15 2.12 2.08 2.02 1.88 1.73 1.59 1.54 1.56 1.60 1.60
1.06 1.19 1.33 1.50 1.66 1.82 2.01 2.12 2.31 2.48 2.66 2.67 2.56 2.52 2.49 2.56 2.62 2.63 2.61 2.48 2.37 2.23 2.06 2.00 1.93 1.89 1.95 2.12 1.97 1.84 1.90 2.10 2.24 2.11 2.01 2.08 2.02 1.87 1.76 1.70 1.69 1.70 1.66